YC0TBU-4 Weather Reports


time (UTC)temp
C
wind
direction
speed
KPH
gust
KPH
rain 1hr
cm
rain 24hr
cm
rain mn
cm
humidity
%
barometer
mb
20260506235318 31 0.0 0.0 0.00 0.00 0.00 38 1009.3
20260506233743 31 0.0 0.0 0.00 0.00 0.00 38 1009.6
20260506232208 31 0.0 0.0 0.00 0.00 0.00 38 1009.8
20260506230633 31 0.0 0.0 0.00 0.00 0.00 38 1009.5
20260506225059 31 0.0 0.0 0.00 0.00 0.00 38 1009.9
20260506223507 31 0.0 0.0 0.00 0.00 0.00 38 1009.6
20260506221932 31 0.0 0.0 0.00 0.00 0.00 38 1008.8
20260506220357 32 0.0 0.0 0.00 0.00 0.00 37 1009.2
20260506214822 31 0.0 0.0 0.00 0.00 0.00 38 1009.0
20260506213247 32 0.0 0.0 0.00 0.00 0.00 38 1008.5
20260506211712 32 0.0 0.0 0.00 0.00 0.00 37 1009.3
20260506210137 32 0.0 0.0 0.00 0.00 0.00 38 1009.1
20260506204546 32 0.0 0.0 0.00 0.00 0.00 38 1009.2
20260506203011 32 0.0 0.0 0.00 0.00 0.00 37 1009.1
20260506201436 32 0.0 0.0 0.00 0.00 0.00 37 1009.0
20260506195901 32 0.0 0.0 0.00 0.00 0.00 37 1009.0
20260506194326 32 0.0 0.0 0.00 0.00 0.00 37 1009.2
20260506192751 32 0.0 0.0 0.00 0.00 0.00 37 1009.3
20260506191216 32 0.0 0.0 0.00 0.00 0.00 37 1009.8
20260506185641 32 0.0 0.0 0.00 0.00 0.00 37 1010.0
20260506184106 32 0.0 0.0 0.00 0.00 0.00 37 1010.4
20260506182530 32 0.0 0.0 0.00 0.00 0.00 37 1010.2
20260506180955 32 0.0 0.0 0.00 0.00 0.00 37 1010.3
20260506175420 32 0.0 0.0 0.00 0.00 0.00 37 1010.8
20260506173845 32 0.0 0.0 0.00 0.00 0.00 37 1010.9
20260506172310 32 0.0 0.0 0.00 0.00 0.00 37 1010.8
20260506170735 32 0.0 0.0 0.00 0.00 0.00 37 1011.0
20260506165144 32 0.0 0.0 0.00 0.00 0.00 37 1011.0
20260506163609 32 0.0 0.0 0.00 0.00 0.00 36 1011.1
20260506162034 32 0.0 0.0 0.00 0.00 0.00 36 1011.1
20260506160459 32 0.0 0.0 0.00 0.00 0.00 36 1011.1
20260506154924 32 0.0 0.0 0.00 0.00 0.00 36 1010.7
20260506153333 31 0.0 0.0 0.00 0.00 0.00 39 1010.2
20260506151742 31 0.0 0.0 0.00 0.00 0.00 39 1010.4
20260506150207 31 0.0 0.0 0.00 0.00 0.00 40 1010.2
20260506144617 31 0.0 0.0 0.00 0.00 0.00 39 1010.1
20260506143042 31 0.0 0.0 0.00 0.00 0.00 40 1010.4
20260506141506 31 0.0 0.0 0.00 0.00 0.00 39 1009.8
20260506135930 30 0.0 0.0 0.00 0.00 0.00 42 1009.4
20260506134355 31 0.0 0.0 0.00 0.00 0.00 40 1009.9
20260506132821 30 0.0 0.0 0.00 0.00 0.00 42 1010.1
20260506131245 29 0.0 0.0 0.00 0.00 0.00 42 1009.6
20260506125710 29 0.0 0.0 0.00 0.00 0.00 43 1009.3
20260506124135 29 0.0 0.0 0.00 0.00 0.00 42 1008.5
20260506122600 28 0.0 0.0 0.00 0.00 0.00 44 1008.0
20260506121025 28 0.0 0.0 0.00 0.00 0.00 44 1007.8
20260506115450 28 0.0 0.0 0.00 0.00 0.00 44 1008.4
20260506113859 32 0.0 0.0 0.00 0.00 0.00 35 1007.0
20260506112324 32 0.0 0.0 0.00 0.00 0.00 35 1007.3
20260506110749 30 0.0 0.0 0.00 0.00 0.00 39 1007.2
20260506105214 30 0.0 0.0 0.00 0.00 0.00 40 1007.5
20260506103639 30 0.0 0.0 0.00 0.00 0.00 41 1007.8
20260506102104 28 0.0 0.0 0.00 0.00 0.00 43 1007.2
20260506100529 28 0.0 0.0 0.00 0.00 0.00 42 1007.5
20260506094938 33 0.0 0.0 0.00 0.00 0.00 35 1006.6
20260506093403 33 0.0 0.0 0.00 0.00 0.00 34 1006.0
20260506091828 33 0.0 0.0 0.00 0.00 0.00 34 1006.1
20260506090253 32 0.0 0.0 0.00 0.00 0.00 35 1005.7
20260506084718 32 0.0 0.0 0.00 0.00 0.00 35 1005.4
20260506083143 32 0.0 0.0 0.00 0.00 0.00 35 1005.6
20260506081608 33 0.0 0.0 0.00 0.00 0.00 35 1005.5
20260506072925 32 0.0 0.0 0.00 0.00 0.00 38 1005.8
20260506071348 32 0.0 0.0 0.00 0.00 0.00 35 1005.7
20260506061128 33 0.0 0.0 0.00 0.00 0.00 33 1006.7
20260506050835 32 0.0 0.0 0.00 0.00 0.00 35 1007.9
20260506043725 31 0.0 0.0 0.00 0.00 0.00 37 1008.5
20260506042150 30 0.0 0.0 0.00 0.00 0.00 38 1009.2
20260506040615 31 0.0 0.0 0.00 0.00 0.00 37 1008.9
20260506035041 32 0.0 0.0 0.00 0.00 0.00 37 1009.0
20260506033505 31 0.0 0.0 0.00 0.00 0.00 38 1010.1
20260506031930 31 0.0 0.0 0.00 0.00 0.00 38 1010.1
20260506030355 31 0.0 0.0 0.00 0.00 0.00 38 1009.6
20260506024820 31 0.0 0.0 0.00 0.00 0.00 38 1009.8
20260506023245 31 0.0 0.0 0.00 0.00 0.00 39 1010.3
20260506021710 31 0.0 0.0 0.00 0.00 0.00 39 1011.0
20260506020135 31 0.0 0.0 0.00 0.00 0.00 39 1011.2
20260506014600 31 0.0 0.0 0.00 0.00 0.00 39 1011.4
20260506013025 31 0.0 0.0 0.00 0.00 0.00 39 1011.4
20260506011450 31 0.0 0.0 0.00 0.00 0.00 39 1010.6
20260506005915 30 0.0 0.0 0.00 0.00 0.00 40 1010.8
20260506004340 30 0.0 0.0 0.00 0.00 0.00 40 1009.9
20260506002805 30 0.0 0.0 0.00 0.00 0.00 40 1009.9
20260506001230 30 0.0 0.0 0.00 0.00 0.00 41 1010.0
20260505235655 30 0.0 0.0 0.00 0.00 0.00 40 1009.7